COSMOS 2251 DEB, 40228

Orbit data source: Space-Track

COSMOS 2251 DEB, 40228 is space debris in LEO originally from a launch on Wed, 16 Jun 1993 UTC launched from the Plesetsk Missile And Space Complex (PKMTR). The debris from Iridium 33, an American commercial communications satellite, has been tracked extensively since its accidental collision with the defunct Russian satellite Cosmos 2251 in 2009. This event, occurring at high speed in low Earth orbit (LEO), generated thousands of pieces of space debris, significantly increasing the risk of further collisions. The Iridium 33 debris cloud has impacted space traffic management and orbital debris mitigation strategies, making it a subject of ongoing study in space situational awareness.

Loading next visibility...
Identifier
40228, 1993-036BVH
Orbit
LEO
Country
Flag of CISCIS
Related business
Manufacturer
Unknown
Mission
Spacecraft
Bus & Motor
Unknown
Mass
Unknown
Launch date (UTC)
1993-06-16 (33 years ago)
Launch vehicle
Unknown
Launch site
Plesetsk Missile And Space Complex (PKMTR)
Object type
Payload
Rocket body
Debris
Shape & HBR
Unknown shape, 0.1 m
Radar Cross Section
Small (<0.1 m²)

Expand to show TLE details & history
Last TLE update: 6 days ago

TLE from 6 days ago
0 COSMOS 2251 DEB
1 40228U 93036BVH 26167.56307676  .00000561  00000-0  18086-3 0  9997
2 40228  74.0556 276.9014 0024105 295.5876  79.3653 14.41356028615984
Epoch: 2026-06-16T13:30Z
TLE epoch observation values (Epoch: 2026-06-16T13:30:49.832Z)
Latitude
14.60428°
Longitude
173.6067°
Altitude
752.788 km
Speed
7.481 km/s
True Right ascension
18h 44m 35s
True Declination
14° 31' 14"
Sunlit
Object was in full shadow at epoch
Visualization orbit readout
Latitude
Unknown
Longitude
Unknown
Altitude
Unknown
Speed
Unknown
Apparent Right ascension
Unknown
Apparent Declination
Unknown
Sunlit
N/A
Visualization observer readout
Local Sidereal Time
21:40:07
Azimuth
Unknown
Elevation
Unknown
Doppler factor
Unknown
Orbital elements
Apogee altitude
768.824 km
Perigee altitude
734.452 km
Semi-major axis
7,129.775 km
Eccentricity
0.00241
Inclination
74.0556°
RAAN
276.9014°
Arg. of periapsis
295.5876°
True anomaly
79.63693°
Mean anomaly
79.3653°
Eccentric anomaly
79.5011°
Mean motion
3.6052 °/min
Orbital period
99.86 mins
BSTAR
0.00018086
Loading maneuver chart data...
Computing Atmospheric mass density...

Documentation

Showing up to 5 results
|